• Join FlightAware (Why Join?)
  • Login
  • US Flag 
10:18PM EDT


 

Airport Tracker/Info


-or-


 

Live Flight TrackerFlight Track Log ✈ DAL1903 ✈ 11-Apr-2013 ✈ KLGA - KSRQ

Flight Track Log - Related Links

Times and Time Zones

All times are in EDT time to prevent confusion due to time zone crossing. See the DAL1903 flight status page for this flight to view local times or setup timezone preferences in your user account.

Time Position Orientation Groundspeed Altitude Reporting Facility
EDT Latitude Longitude Course Direction KTS MPH feet Rate Location/Type
11:49AM 40.7500 -73.8333 114° Southeast 174 200 1,500  Level New York TRACON
11:50AM 40.7333 -73.7833 114° Southeast 236 272 3,200 1,800 Climbing New York TRACON
11:51AM 40.7833 -73.7500 27° Northeast 246 283 5,300 2,280 Climbing New York TRACON
11:52AM 40.8500 -73.8000 330° Northwest 262 302 7,800 2,700 Climbing New York TRACON
11:53AM 40.9000 -73.8667 315° West 256 295 10,500 2,100 Climbing New York TRACON
11:54AM 40.9000 -73.9500 270° West 270 311 12,000 1,440 Climbing New York TRACON
11:56AM 40.8267 -74.1194 240° Southwest 347 399 14,400 1,080 Climbing New York Center
11:57AM 40.7800 -74.2186 238° Southwest 363 418 15,000 1,260 Climbing New York Center
11:58AM 40.7200 -74.3469 238° Southwest 363 418 17,000 1,200 Climbing New York Center
11:59AM 40.6686 -74.4564 238° Southwest 378 435 17,500 1,140 Climbing New York Center
12:00PM 40.6039 -74.5897 237° Southwest 390 449 19,300 1,860 Climbing New York Center
12:01PM 40.5356 -74.7061 232° Southwest 402 463 21,200 1,680 Climbing New York Center
12:02PM 40.4628 -74.8244 231° Southwest 413 475 22,700 1,620 Climbing New York Center
12:03PM 40.3917 -74.9483 233° Southwest 426 490 24,500 1,740 Climbing New York Center
12:04PM 40.3186 -75.0692 232° Southwest 431 496 26,300 1,500 Climbing New York Center
12:05PM 40.2453 -75.1925 232° Southwest 431 496 27,500 1,500 Climbing New York Center
12:06PM 40.1742 -75.3131 232° Southwest 431 496 29,300 1,320 Climbing New York Center
12:07PM 40.0986 -75.4328 230° Southwest 431 496 30,200 900 Climbing New York Center
12:08PM 40.0236 -75.5364 227° Southwest 438 504 31,200 840 Climbing New York Center
12:09PM 39.9417 -75.6497 227° Southwest 443 510 32,000 240 Climbing New York Center
12:11PM 39.7714 -75.9156 230° Southwest 436 502 32,000  Level Washington Center
12:12PM 39.6942 -76.0339 230° Southwest 436 502 32,000  Level Washington Center
12:13PM 39.6206 -76.1544 232° Southwest 436 502 32,000  Level Washington Center
12:14PM 39.5428 -76.2750 230° Southwest 436 502 32,000  Level Washington Center
12:15PM 39.4631 -76.3953 229° Southwest 436 502 32,000  Level Washington Center
12:16PM 39.3872 -76.5153 231° Southwest 436 502 32,000  Level Washington Center
12:17PM 39.3089 -76.6378 230° Southwest 441 507 32,000  Level Washington Center
12:18PM 39.2350 -76.7572 231° Southwest 441 507 32,000  Level Washington Center
12:19PM 39.1567 -76.8764 230° Southwest 441 507 32,000  Level Washington Center
12:20PM 39.0761 -76.9981 230° Southwest 441 507 32,000  Level Washington Center
12:21PM 38.9894 -77.1031 223° Southwest 446 513 32,000  Level Washington Center
12:22PM 38.8983 -77.2053 221° Southwest 441 507 32,000  Level Washington Center
12:23PM 38.7947 -77.3203 221° Southwest 446 513 32,000  Level Washington Center
12:24PM 38.7036 -77.4167 220° Southwest 439 505 32,000  Level Washington Center
12:25PM 38.6103 -77.5153 220° Southwest 439 505 32,000  Level Washington Center
12:26PM 38.5189 -77.6164 221° Southwest 429 494 32,000  Level Washington Center
12:27PM 38.4383 -77.7069 221° Southwest 434 499 32,000  Level Washington Center
12:28PM 38.3361 -77.8153 220° Southwest 439 505 32,000  Level Washington Center
12:29PM 38.2511 -77.9078 221° Southwest 439 505 32,000  Level Washington Center
12:30PM 38.1489 -78.0156 220° Southwest 439 505 32,000  Level Washington Center
12:31PM 38.0658 -78.1000 219° Southwest 439 505 32,000  Level Washington Center
12:32PM 37.9717 -78.2022 221° Southwest 439 505 32,000  Level Washington Center
12:33PM 37.8758 -78.2936 217° Southwest 439 505 32,000  Level Washington Center
12:34PM 37.7672 -78.3922 216° Southwest 439 505 32,000  Level Washington Center
12:35PM 37.6714 -78.4831 217° Southwest 444 511 32,000  Level Washington Center
12:36PM 37.5731 -78.5736 216° Southwest 444 511 32,000  Level Washington Center
12:37PM 37.4769 -78.6642 217° Southwest 444 511 32,000  Level Washington Center
12:38PM 37.3914 -78.7469 218° Southwest 444 511 32,000  Level Washington Center
12:39PM 37.2931 -78.8342 215° Southwest 444 511 32,000  Level Washington Center
12:40PM 37.1944 -78.9267 217° Southwest 444 511 32,000  Level Washington Center
12:41PM 37.0961 -79.0161 216° Southwest 444 511 32,000  Level Washington Center
12:42PM 37.0017 -79.1056 217° Southwest 444 511 32,000  Level Washington Center
12:43PM 36.8944 -79.2044 216° Southwest 439 505 32,000  Level Washington Center
12:44PM 36.7956 -79.2958 217° Southwest 444 511 32,000  Level Washington Center
12:45PM 36.6969 -79.3869 217° Southwest 444 511 32,000  Level Washington Center
12:46PM 36.5981 -79.4753 216° Southwest 444 511 32,000  Level Washington Center
12:48PM 36.4036 -79.6589 217° Southwest 441 507 32,000  Level Atlanta Center
12:49PM 36.3122 -79.7333 213° Southwest 441 507 32,000  Level Atlanta Center
12:50PM 36.2131 -79.8208 215° Southwest 441 507 32,000  Level Atlanta Center
12:51PM 36.1039 -79.9167 215° Southwest 441 507 32,000  Level Atlanta Center
12:52PM 35.9981 -79.9964 211° Southwest 441 507 32,000  Level Atlanta Center
12:53PM 35.8872 -80.0531 203° Southwest 436 502 32,000  Level Atlanta Center
12:54PM 35.7867 -80.1017 201° Southwest 436 502 32,000  Level Atlanta Center
12:55PM 35.6656 -80.1689 204° Southwest 441 507 32,000  Level Atlanta Center
12:56PM 35.5506 -80.2228 201° Southwest 441 507 32,000  Level Atlanta Center
12:57PM 35.4478 -80.2758 203° Southwest 441 507 32,000  Level Atlanta Center
12:58PM 35.3389 -80.3292 202° Southwest 441 507 32,000  Level Atlanta Center
12:59PM 35.2258 -80.3853 202° Southwest 446 513 32,000  Level Atlanta Center
01:00PM 35.1125 -80.4383 201° Southwest 446 513 32,000  Level Atlanta Center
01:02PM 34.9222 -80.5356 203° Southwest 439 505 32,000  Level Jacksonville Center
01:03PM 34.8125 -80.5892 202° Southwest 434 499 32,000  Level Jacksonville Center
01:04PM 34.7050 -80.6425 202° Southwest 424 488 32,000  Level Jacksonville Center
01:05PM 34.5997 -80.6931 202° Southwest 442 509 32,000  Level Jacksonville Center
01:06PM 34.4858 -80.7489 202° Southwest 449 517 32,000  Level Jacksonville Center
01:07PM 34.3783 -80.8019 202° Southwest 443 510 32,000  Level Jacksonville Center
01:08PM 34.2583 -80.8625 203° Southwest 436 502 32,000  Level Jacksonville Center
01:09PM 34.1444 -80.9178 202° Southwest 429 494 32,000  Level Jacksonville Center
01:10PM 34.0325 -80.9706 201° Southwest 434 499 32,000  Level Jacksonville Center
01:11PM 33.9206 -81.0231 201° Southwest 434 499 32,000  Level Jacksonville Center
01:12PM 33.8067 -81.0756 201° Southwest 434 499 32,000  Level Jacksonville Center
01:13PM 33.6947 -81.1353 204° Southwest 434 499 32,000  Level Jacksonville Center
01:14PM 33.5808 -81.1922 203° Southwest 434 499 32,000  Level Jacksonville Center
01:15PM 33.4708 -81.2467 202° Southwest 434 499 32,000  Level Jacksonville Center
01:16PM 33.3589 -81.3033 203° Southwest 434 499 32,000  Level Jacksonville Center
01:17PM 33.2469 -81.3553 201° Southwest 434 499 32,000  Level Jacksonville Center
01:18PM 33.1328 -81.4142 203° Southwest 442 509 32,000  Level Jacksonville Center
01:19PM 33.0228 -81.4656 201° Southwest 435 501 32,000  Level Jacksonville Center
01:20PM 32.9106 -81.5217 203° Southwest 435 501 32,000  Level Jacksonville Center
01:21PM 32.7964 -81.5778 202° Southwest 435 501 32,000  Level Jacksonville Center
01:22PM 32.6864 -81.6314 202° Southwest 435 501 32,000  Level Jacksonville Center
01:23PM 32.5761 -81.6847 202° Southwest 431 496 32,000  Level Jacksonville Center
01:24PM 32.4764 -81.7303 201° Southwest 436 502 32,000  Level Jacksonville Center
01:25PM 32.3539 -81.7933 204° Southwest 436 502 32,000  Level Jacksonville Center
01:26PM 32.2669 -81.8878 223° Southwest 419 482 32,000  Level Jacksonville Center
01:27PM 32.2008 -81.9842 231° Southwest 419 482 32,000  Level Jacksonville Center
01:28PM 32.1244 -82.1003 232° Southwest 419 482 32,000  Level Jacksonville Center
01:29PM 32.0603 -82.1939 231° Southwest 419 482 32,000  Level Jacksonville Center
01:30PM 31.9836 -82.3122 233° Southwest 414 476 32,000  Level Jacksonville Center
01:31PM 31.9214 -82.4031 231° Southwest 414 476 32,000  Level Jacksonville Center
01:32PM 31.8486 -82.5086 231° Southwest 414 476 32,000  Level Jacksonville Center
01:33PM 31.7800 -82.6114 232° Southwest 414 476 32,000  Level Jacksonville Center
01:34PM 31.7050 -82.7142 229° Southwest 414 476 32,000  Level Jacksonville Center
01:35PM 31.6342 -82.8169 231° Southwest 414 476 32,000  Level Jacksonville Center
01:36PM 31.5297 -82.8706 204° Southwest 409 471 32,000  Level Jacksonville Center
01:37PM 31.4150 -82.9119 197° South 409 471 32,000  Level Jacksonville Center
01:38PM 31.3000 -82.9486 195° South 426 490 32,000  Level Jacksonville Center
01:39PM 31.1914 -82.9847 196° South 420 483 32,000  Level Jacksonville Center
01:40PM 31.0767 -83.0261 197° South 420 483 32,000 -540 Level Jacksonville Center
01:41PM 30.9700 -83.0572 194° South 409 471 31,000 -600 Descending Jacksonville Center
01:42PM 30.8553 -83.0983 197° South 415 478 30,900 -360 Descending Jacksonville Center
01:44PM 30.6169 -83.1797 196° South 421 484 30,000 -300 Descending Jacksonville Center
01:45PM 30.5042 -83.2156 195° South 421 484 30,000  Level Jacksonville Center
01:46PM 30.3872 -83.2539 196° South 421 484 30,000  Level Jacksonville Center
01:47PM 30.2764 -83.2919 197° South 421 484 30,000 -60 Level Jacksonville Center
01:48PM 30.1614 -83.3297 196° South 421 484 29,900 -540 Descending Jacksonville Center
01:49PM 30.0444 -83.3678 196° South 421 484 29,000 -480 Descending Jacksonville Center
01:50PM 29.9294 -83.4056 196° South 426 490 29,000 -240 Level Jacksonville Center
01:51PM 29.8122 -83.4408 195° South 432 497 28,600 -1,020 Descending Jacksonville Center
01:52PM 29.6953 -83.4783 196° South 432 497 27,000 -1,500 Descending Jacksonville Center
01:53PM 29.5803 -83.5158 196° South 438 504 25,700 -1,020 Descending Jacksonville Center
01:54PM 29.4672 -83.5508 195° South 433 498 25,000 -420 Descending Jacksonville Center
01:55PM 29.3522 -83.5836 194° South 433 498 24,900 -60 Descending Jacksonville Center
01:56PM 29.2378 -83.5328 159° South 418 481 24,900  Level Jacksonville Center
01:57PM 29.1275 -83.4725 154° Southeast 427 491 25,000  Climbing Jacksonville Center
01:58PM 29.0150 -83.4103 154° Southeast 432 497 25,000  Level Jacksonville Center
01:59PM 28.9150 -83.3575 155° Southeast 439 505 25,000 -360 Level Jacksonville Center
02:00PM 28.8025 -83.3072 159° South 439 505 24,300 -1,140 Descending Jacksonville Center
02:01PM 28.6983 -83.2664 161° South 420 483 22,800 -1,800 Descending Jacksonville Center
02:03PM 28.4500 -83.1667 161° South 375 432 18,500 -2,040 Descending Tampa TRACON
02:04PM 28.3500 -83.1333 164° South 360 414 15,900 -2,400 Descending Tampa TRACON
02:05PM 28.2667 -83.1000 161° South 356 410 13,800 -2,100 Descending Tampa TRACON
02:06PM 28.1667 -83.0500 156° South 350 403 12,000 -900 Descending Tampa TRACON
02:07PM 28.0833 -83.0167 161° South 331 381 12,000 -180 Level Tampa TRACON
02:08PM 28.0000 -83.0167 180° South 312 359 11,700 -780 Descending Tampa TRACON
02:09PM 27.9167 -83.0167 180° South 272 313 10,500 -1,380 Descending Tampa TRACON
02:10PM 27.8500 -83.0167 180° South 270 311 9,000 -1,560 Descending Tampa TRACON
02:11PM 27.7667 -83.0000 170° South 266 306 7,400 -1,560 Descending Tampa TRACON
02:12PM 27.7333 -82.9333 119° Southeast 260 299 6,100 -1,200 Descending Tampa TRACON
02:13PM 27.6667 -82.8667 138° Southeast 258 297 5,000 -540 Descending Tampa TRACON
02:14PM 27.6167 -82.8167 138° Southeast 255 293 5,000 -420 Level Tampa TRACON
02:15PM 27.5667 -82.7500 130° Southeast 252 290 4,200 -900 Descending Tampa TRACON
02:16PM 27.5333 -82.7167 138° Southeast 208 239 3,400 -900 Descending Tampa TRACON
02:17PM 27.5000 -82.6667 127° Southeast 170 196 2,600 -840 Descending Tampa TRACON
02:18PM 27.4667 -82.6333 138° Southeast 164 189 1,700 -780 Descending Tampa TRACON
02:19PM 27.4333 -82.6000 138° Southeast 128 147 1,100 -720 Descending Tampa TRACON
02:20PM 27.4167 -82.5833 138° Southeast 123 142 400 -720 Descending Tampa TRACON